Weather History for Seldovia, AK

Change the Weather History Date:

Monday, November 19, 2012

  Actual Average (PAHO) Record (PAHO)
Temperature  
Mean Temperature 22 °F -  
Max Temperature 27 °F 35 °F 49 °F (1935)
Min Temperature 18 °F 23 °F 1 °F (1950)
Degree Days  
Heating Degree Days 42    
Moisture  
Dew Point 16 °F    
Average Humidity 75    
Maximum Humidity 88    
Minimum Humidity 58    
Precipitation  
Precipitation 0.00 in - - ()
Sea Level Pressure  
Sea Level Pressure 29.39 in    
Wind  
Wind Speed 4 mph (North)    
Max Wind Speed 8 mph    
Max Gust Speed -    
Visibility 10 miles    
Events      
Averages and records for this station are not official NWS values.
T = Trace of Precipitation, MM = Missing Value Source: NWS Daily Summary

Daily Weather History Graph

Daily Weather History Graph

Search for Another Location

Airport:

Trip Planner

Search our weather history database for the weather conditions in past years. The results will help you decide how hot, cold, wet, or windy it might be!

Date:

Astronomy

Nov. 19, 2012 Rise Set
Actual Time 9:12 AM AKST 4:31 PM AKST
Civil Twilight 8:23 AM AKST 5:20 PM AKST
Nautical Twilight 7:31 AM AKST 6:12 PM AKST
Astronomical Twilight 6:43 AM AKST 7:00 PM AKST
Moon 1:42 PM AKST (11/19) 11:55 PM AKST (11/19)
Length of Visible Light 8h 57m
Length of Day
7h 18m
Waxing Crescent, 42% of the Moon is Illuminated
Nov 19
Waxing Crescent
Nov 20
First Quarter
Nov 28
Full
Dec 6
Last Quarter
Dec 12
New

Hourly Weather History & Observations

Time (AKST) Temp. Windchill Dew Point Humidity Pressure Visibility Wind Dir Wind Speed Gust Speed Precip Events Conditions
12:53 AM 27.0 °F 21.6 °F 19.9 °F 75% 29.26 in 10.0 mi Variable 4.6 mph - N/A   Clear
1:53 AM 26.1 °F 20.5 °F 19.9 °F 78% 29.26 in 10.0 mi Variable 4.6 mph - N/A   Clear
3:53 AM 26.1 °F 17.6 °F 19.0 °F 75% 29.30 in 10.0 mi North 8.1 mph - N/A   Clear
4:49 AM 24.8 °F 17.9 °F 19.4 °F 80% 29.31 in 10.0 mi North 5.8 mph - N/A   Mostly Cloudy
4:53 AM 25.0 °F 18.1 °F 19.0 °F 78% 29.32 in 10.0 mi North 5.8 mph - N/A   Mostly Cloudy
5:10 AM 24.8 °F 17.9 °F 19.4 °F 80% 29.32 in 10.0 mi North 5.8 mph - N/A   Scattered Clouds
5:53 AM 25.0 °F 17.1 °F 18.0 °F 75% 29.34 in 10.0 mi North 6.9 mph - N/A   Clear
6:53 AM 24.1 °F - 17.1 °F 75% 29.35 in 10.0 mi Calm Calm - N/A   Clear
7:53 AM 24.1 °F 15.2 °F 16.0 °F 71% 29.37 in 10.0 mi North 8.1 mph - N/A   Clear
8:53 AM 23.0 °F 14.7 °F 16.0 °F 74% 29.38 in 10.0 mi NNE 6.9 mph - N/A   Clear
9:53 AM 23.0 °F - 15.1 °F 72% 29.39 in 10.0 mi Calm Calm - N/A   Clear
10:53 AM 21.0 °F - 16.0 °F 81% 29.40 in 10.0 mi Calm Calm - N/A   Scattered Clouds
11:53 AM 26.1 °F 19.4 °F 15.1 °F 63% 29.41 in 10.0 mi NNE 5.8 mph - N/A   Clear
12:53 PM 26.1 °F 17.6 °F 15.1 °F 63% 29.42 in 10.0 mi North 8.1 mph - N/A   Clear
1:53 PM 26.1 °F 21.9 °F 14.0 °F 60% 29.41 in 10.0 mi North 3.5 mph - N/A   Clear
2:53 PM 26.1 °F 21.9 °F 12.9 °F 58% 29.41 in 10.0 mi North 3.5 mph - N/A   Partly Cloudy
3:53 PM 25.0 °F - 12.9 °F 60% 29.42 in 10.0 mi Calm Calm - N/A   Clear
4:53 PM 21.9 °F - 12.9 °F 68% 29.43 in 10.0 mi Calm Calm - N/A   Clear
5:53 PM 19.9 °F - 14.0 °F 78% 29.44 in 10.0 mi Calm Calm - N/A   Clear
6:53 PM 19.9 °F - 14.0 °F 78% 29.45 in 10.0 mi Calm Calm - N/A   Clear
7:53 PM 19.0 °F - 16.0 °F 88% 29.47 in 10.0 mi Calm Calm - N/A   Clear
8:53 PM 19.9 °F - 15.1 °F 81% 29.47 in 10.0 mi Calm Calm - N/A   Mostly Cloudy
9:53 PM 18.0 °F - 14.0 °F 84% 29.47 in 10.0 mi Calm Calm - N/A   Clear
10:53 PM 18.0 °F - 15.1 °F 88% 29.49 in 10.0 mi Calm Calm - N/A   Clear
11:53 PM 18.0 °F - 14.0 °F 84% 29.49 in 10.0 mi Calm Calm - N/A   Clear